Tracking 19908 objects as of 19-Oct-2019
HD Live streaming from Space Station
objects crossing your sky now

FENGYUN 1C DEB

Track FENGYUN 1C DEB now!
10-day predictions


NORAD ID: 32114
Int'l Code: 1999-025CRG
Perigee: 698.1 km
Apogee: 814.4 km
Inclination: 100.0 °
Period: 99.8 minutes
Semi major axis: 7127 km
RCS: 0.0153 m2 (small)
Launch date: May 10, 1999
Source: People's Republic of China (PRC)
Launch site: Taiyaun Space Center, China (TSC)

Note: This is SATELLITE DEBRIS
aabbcc
Your satellite tracking list
Your tracking list is empty




NASA's NSSDC Master Catalog

Two Line Element Set (TLE):
1 32114U 99025CRG 19292.33670787  .00000448  00000-0  14628-3 0  9990
2 32114  99.9530 330.9208 0081616  53.8713 306.9990 14.42854224644390
Source of the keplerian elements: AFSPC